Weather History for KBDL - June, 2013

Change the Weather History Date:

Monday, June 24, 2013

  Actual Average Record
Temperature  
Mean Temperature 82 °F 71 °F  
Max Temperature 94 °F 82 °F 94 °F (1971)
Min Temperature 70 °F 60 °F 46 °F (1988)
Degree Days  
Heating Degree Days 0 0  
Month to date heating degree days 33 39  
Since 1 June heating degree days 33 39  
Since 1 July heating degree days 5717 5997  
Cooling Degree Days 17 6  
Month to date cooling degree days 97 102  
Year to date cooling degree days 151 141  
Since 1 June cooling degree days 97 102  
Growing Degree Days 32 (Base 50)    
Moisture  
Dew Point 68 °F    
Average Humidity 67    
Maximum Humidity 93    
Minimum Humidity 41    
Precipitation  
Precipitation 0.05 in 0.12 in 1.50 in (1944)
Month to date precipitation 9.07 3.64  
Year to date precipitation 25.21 21.45  
Snow  
Snow 0.00 in 0.00 in 0.00 in (2002)
Month to date snowfall 0.0 0.0  
Since 1 June snowfall 0.0 0.0  
Since 1 July snowfall 56.9 40.5  
Snow Depth 0.00 in    
Sea Level Pressure  
Sea Level Pressure 29.98 in    
Wind  
Wind Speed 7 mph (SW)    
Max Wind Speed 22 mph    
Max Gust Speed 28 mph    
Visibility 10 miles    
Events Rain , Thunderstorm    
T = Trace of Precipitation, MM = Missing Value Source: NWS Daily Summary

Daily Weather History Graph

Daily Weather History Graph

Search for Another Location

Airport or City:

Trip Planner

Search our weather history database for the weather conditions in past years. The results will help you decide how hot, cold, wet, or windy it might be!

Date:

Astronomy

Jun. 24, 2013 Rise Set
Actual Time 5:16 AM EDT 8:30 PM EDT
Civil Twilight 4:41 AM EDT 9:04 PM EDT
Nautical Twilight 3:57 AM EDT 9:48 PM EDT
Astronomical Twilight 3:03 AM EDT 10:42 PM EDT
Moon 9:27 PM EDT (6/24) 6:42 AM EDT (6/24)
Length of Visible Light 16h 22m
Length of Day
15h 13m
Full, 98% of the Moon is Illuminated
Jun 24
Full
Jun 30
Last Quarter
Jul 8
New
Jul 15
First Quarter
Jul 22
Full

Hourly Weather History & Observations

Time (EDT) Temp. Heat Index Dew Point Humidity Pressure Visibility Wind Dir Wind Speed Gust Speed Precip Events Conditions
12:51 AM 73.0 °F - 68.0 °F 84% 30.03 in 10.0 mi South 9.2 mph - N/A   Partly Cloudy
1:51 AM 72.0 °F - 68.0 °F 87% 30.03 in 10.0 mi South 6.9 mph - N/A   Mostly Cloudy
2:51 AM 72.0 °F - 69.1 °F 91% 30.02 in 10.0 mi South 8.1 mph - N/A   Mostly Cloudy
3:51 AM 72.0 °F - 69.1 °F 91% 30.01 in 10.0 mi South 6.9 mph - N/A   Overcast
4:51 AM 72.0 °F - 69.1 °F 91% 30.00 in 10.0 mi SSE 5.8 mph - N/A   Mostly Cloudy
5:51 AM 72.0 °F - 69.1 °F 91% 30.00 in 9.0 mi South 6.9 mph - N/A   Mostly Cloudy
6:33 AM 73.4 °F - 69.8 °F 88% 30.01 in 10.0 mi South 5.8 mph - N/A   Mostly Cloudy
6:51 AM 73.9 °F - 70.0 °F 87% 30.01 in 10.0 mi South 4.6 mph - N/A   Scattered Clouds
7:51 AM 77.0 °F - 70.0 °F 79% 30.02 in 10.0 mi South 4.6 mph - N/A   Scattered Clouds
8:51 AM 80.1 °F 83.2 °F 70.0 °F 71% 30.02 in 10.0 mi South 4.6 mph - N/A   Mostly Cloudy
9:51 AM 84.0 °F 89.0 °F 71.1 °F 65% 30.01 in 10.0 mi SW 3.5 mph - N/A   Scattered Clouds
10:51 AM 87.1 °F 90.6 °F 68.0 °F 53% 30.00 in 10.0 mi WNW 10.4 mph - N/A   Mostly Cloudy
11:51 AM 90.0 °F 94.5 °F 69.1 °F 50% 29.99 in 10.0 mi WNW 8.1 mph - N/A   Scattered Clouds
12:51 PM 91.0 °F 97.6 °F 71.1 °F 52% 29.99 in 10.0 mi West 8.1 mph - N/A   Mostly Cloudy
1:51 PM 93.0 °F 99.0 °F 70.0 °F 47% 29.97 in 10.0 mi West 11.5 mph - N/A   Mostly Cloudy
2:51 PM 93.0 °F 97.4 °F 68.0 °F 44% 29.94 in 10.0 mi WSW 9.2 mph - N/A   Mostly Cloudy
3:51 PM 93.9 °F 97.5 °F 66.9 °F 41% 29.91 in 10.0 mi WNW 10.4 mph - N/A   Scattered Clouds
4:39 PM 91.4 °F 95.4 °F 68.0 °F 46% 29.91 in 10.0 mi SW 11.5 mph - N/A Thunderstorm Thunderstorm
4:51 PM 90.0 °F 92.8 °F 66.9 °F 46% 29.91 in 10.0 mi West 9.2 mph - N/A Thunderstorm Thunderstorm
4:54 PM 89.6 °F 92.2 °F 66.2 °F 46% 29.92 in 10.0 mi West 9.2 mph - N/A   Mostly Cloudy
5:51 PM 88.0 °F 91.4 °F 68.0 °F 51% 29.91 in 10.0 mi WSW 10.4 mph - N/A   Mostly Cloudy
6:51 PM 81.0 °F 82.2 °F 63.0 °F 54% 29.95 in 10.0 mi NNW 13.8 mph 21.9 mph 0.00 in Rain , Thunderstorm Light Thunderstorms and Rain
7:46 PM 75.2 °F - 62.6 °F 65% 29.96 in 10.0 mi North 5.8 mph - 0.05 in   Mostly Cloudy
7:51 PM 75.9 °F - 64.0 °F 67% 29.96 in 10.0 mi ENE 4.6 mph - 0.05 in   Overcast
8:51 PM 73.0 °F - 64.9 °F 76% 29.98 in 10.0 mi Calm Calm - 0.00 in Rain Light Rain
9:51 PM 72.0 °F - 66.0 °F 81% 29.98 in 10.0 mi WSW 8.1 mph - 0.00 in Rain Light Rain
10:51 PM 71.1 °F - 66.0 °F 84% 29.95 in 10.0 mi Calm Calm - 0.00 in   Mostly Cloudy
11:51 PM 71.1 °F - 66.0 °F 84% 29.96 in 10.0 mi SW 4.6 mph - N/A   Scattered Clouds